Location: Roanoke
(37.2710°N, 79.9420°W)
Time: 05:17:23
(UTC-05:00)

Transit 2A - Pass Details

Date: 23 November 2019
Orbit: 602 x 957 km, 66.7° (Epoch: 05 December)

Event Time Altitude Azimuth Distance (km) Brightness Sun altitude
Rises 21:48:44 0° 307° (NW) 2,875 - -55.8°
Reaches altitude 10° 21:52:14 10° 278° (W) 2,003 - -56.4°
Maximum altitude 21:54:03 12° 253° (WSW) 1,875 - -56.8°
Drops below altitude 10° 21:55:55 10° 229° (SW) 2,054 - -57.1°
Sets 21:59:38 0° 200° (SSW) 3,036 - -57.8°
